STARLINK-34720, 66449

Orbit data source: Space-Track

STARLINK-34720, 66449 is a payload satellite owned by SpaceX/Seattle (US) in LEO that was launched on Tue, 11 Nov 2025 UTC via an FALCON 9 launch vehicle from the Air Force Eastern Test Range (AFETR). Payload-class satellites include a variety of spacecraft equipped with specific instruments for various scientific and technological missions. These include communications satellites like Starlink; space stations such as the ISS; scientific satellites like the Hubble; Earth observation satellites from companies like Planet Labs, Umbra, and HawkEye 360; GPS; miniature CubeSats for education and research; and military/defense satellites.

Loading next visibility...
Identifier
66449, 2025-259AD
Orbit
LEO
Country
Flag of USUS
Related business
Manufacturer
SpaceX/Seattle
Mission
Operational Commercial Communications
Bus & Motor
STARLINK V2MO, Unknown motor
Mass
575 kg wet, ~530 kg dry
Launch date (UTC)
2025-11-11 (7 months ago)
Launch vehicle
FALCON 9
Launch site
Air Force Eastern Test Range (AFETR)
Object type
Payload
Rocket body
Debris
Shape & HBR
Box + 2 Pan, 17.7 m
Radar Cross Section
36.964 m², Large (>1 m²)

Expand to show TLE details & history
Last TLE update: 15 hours ago

TLE from 15 hours ago
0 STARLINK-34720
1 66449U 25259AD  26150.06745463  .00022521  00000-0  82512-3 0  9994
2 66449  42.9989 175.0489 0001454 278.4220  81.6467 15.27592554 31826
Epoch: 2026-05-30T01:37Z
TLE epoch observation values (Epoch: 2026-05-30T01:37:08.080Z)
Latitude
0.00002°
Longitude
-96.82355°
Altitude
482.642 km
Speed
7.626 km/s
True Right ascension
11h 40m 11s
True Declination
0° 00' 00"
Sunlit
Object was in daylight at epoch
Visualization orbit readout
Latitude
Unknown
Longitude
Unknown
Altitude
Unknown
Speed
Unknown
Apparent Right ascension
Unknown
Apparent Declination
Unknown
Sunlit
N/A
Visualization observer readout
Local Sidereal Time
02:07:24
Azimuth
Unknown
Elevation
Unknown
Doppler factor
Unknown
Orbital elements
Apogee altitude
485.955 km
Perigee altitude
483.959 km
Semi-major axis
6,863.094 km
Eccentricity
0.00015
Inclination
42.9989°
RAAN
175.0489°
Arg. of periapsis
278.422°
True anomaly
81.66319°
Mean anomaly
81.6467°
Eccentric anomaly
81.65494°
Mean motion
3.81736 °/min
Orbital period
94.31 mins
BSTAR
0.00082512
Loading maneuver chart data...
Computing Atmospheric mass density...
Loading historical data...
Loading historical data...
Loading historical data...
Loading historical data...
Loading historical data...
Loading historical data...
Loading historical data...

Documentation

Showing up to 5 results
|